Location: Unspecified
(0.0000°N, 0.0000°E)
Time: 15:47:01
(UTC+00:00)

XW-2A - Visible Passes

Search period start: 17 July 2018 00:00
Search period end: 27 July 2018 00:00
Orbit: 436 x 453 km, 97.4° (Epoch: 17 July)

Date Brightness Start Highest point End Pass type
(mag) Time Alt. Az. Time Alt. Az. Time Alt. Az.
17 Jul ? 20:04:07 20° NNW 20:04:07 20° NNW 20:05:19 10° NNW visible
18 Jul ? 19:27:05 17° NE 19:27:05 17° NE 19:28:15 10° NNE visible
19 Jul ? 20:23:35 13° NW 20:23:35 13° NW 20:24:04 10° NW visible
20 Jul ? 19:46:33 22° N 19:46:33 22° N 19:47:54 10° N visible
21 Jul ? 19:09:31 10° NE 19:09:31 10° NE 19:09:39 10° NE visible
22 Jul ? 20:06:00 19° NNW 20:06:00 19° NNW 20:07:04 10° NNW visible
23 Jul ? 19:28:58 17° NNE 19:28:58 17° NNE 19:30:03 10° NNE visible
24 Jul ? 20:25:29 12° NW 20:25:29 12° NW 20:25:45 10° NW visible
25 Jul ? 19:48:26 20° N 19:48:26 20° N 19:49:38 10° N visible
26 Jul ? 19:11:24 10° NE 19:11:24 10° NE 19:11:29 10° NE visible
